Location: 81360 Arifat, France
(43.7204°N, 2.3408°E)
Time: 07:34:12
(UTC+01:00)

Courier 1B - All Passes

Search period start: 07 December 2025 00:00
Search period end: 17 December 2025 00:00
Orbit: 962 x 1208 km, 28.3° (Epoch: 06 December)

Date Brightness Start Highest point End Pass type
(mag) Time Alt. Az. Time Alt. Az. Time Alt. Az.
07 Dec - 01:23:52 10° S 01:25:55 12° SSE 01:27:59 10° SE night (unlit)
07 Dec - 03:14:18 10° SW 03:18:44 19° S 03:23:15 10° SE visible
07 Dec - 05:07:17 10° SW 05:11:41 19° S 05:16:12 10° SE visible
07 Dec - 07:03:14 10° SSW 07:04:34 11° SSW 07:05:56 10° S visible
08 Dec - 02:21:00 10° SSW 02:25:09 18° S 02:29:20 10° SE night (unlit)
08 Dec - 04:13:35 10° SW 04:18:05 20° S 04:22:41 10° SE visible
08 Dec - 06:08:10 10° SW 06:10:59 13° SSW 06:13:52 10° S visible
09 Dec - 01:27:52 10° SSW 01:31:36 16° SSE 01:35:19 10° SE night (unlit)
09 Dec - 03:19:57 10° SW 03:24:29 20° S 03:29:05 10° SE visible
09 Dec - 05:13:52 10° SW 05:17:25 15° SSW 05:21:00 10° SSE visible
10 Dec - 00:34:58 10° SSW 00:38:03 14° SSE 00:41:06 10° SE night (unlit)
10 Dec - 02:26:25 10° SW 02:30:55 20° S 02:35:26 10° SE night (unlit)
10 Dec - 04:19:51 10° SW 04:23:50 17° SSW 04:27:52 10° SSE visible
10 Dec - 23:42:34 10° S 23:44:30 11° SSE 23:46:24 10° SE night (unlit)
11 Dec - 01:32:57 10° SW 01:37:20 19° S 01:41:41 10° SE night (unlit)
11 Dec - 03:25:59 10° SW 03:30:15 19° S 03:34:33 10° SE visible
11 Dec - 05:22:15 10° SSW 05:23:05 10° SSW 05:23:55 10° SSW visible
12 Dec - 00:39:35 10° SSW 00:43:46 18° S 00:47:53 10° SE night (unlit)
12 Dec - 02:32:13 10° SW 02:36:41 20° S 02:41:08 10° SE night (unlit)
12 Dec - 04:26:52 10° SW 04:29:32 13° SSW 04:32:14 10° S visible
12 Dec - 23:46:21 10° SSW 23:50:11 16° SSE 23:53:57 10° SE night (unlit)
13 Dec - 01:38:31 10° SW 01:43:06 20° S 01:47:38 10° SE night (unlit)
13 Dec - 03:32:30 10° SW 03:35:59 15° SSW 03:39:29 10° SSE night (unlit)
13 Dec - 22:53:20 10° SSW 22:56:36 14° SSE 22:59:49 10° SE night (unlit)
14 Dec - 00:44:53 10° SW 00:49:31 20° S 00:54:04 10° SE night (unlit)
14 Dec - 02:38:24 10° SW 02:42:26 17° SSW 02:46:26 10° SSE night (unlit)
14 Dec - 22:00:46 10° S 22:03:01 12° SSE 22:05:13 10° SE night (unlit)
14 Dec - 23:51:19 10° SW 23:55:55 19° S 00:00:24 10° SE night (unlit)
15 Dec - 01:44:27 10° SW 01:48:52 19° S 01:53:13 10° SE night (unlit)
15 Dec - 03:40:30 10° SSW 03:41:39 10° SSW 03:42:48 10° S night (unlit)
15 Dec - 22:57:51 10° SSW 23:02:19 18° S 23:06:39 10° SE night (unlit)
16 Dec - 00:50:35 10° SW 00:55:17 20° S 00:59:52 10° SE night (unlit)
16 Dec - 02:45:15 10° SW 02:48:07 13° SSW 02:51:00 10° S night (unlit)
16 Dec - 22:04:30 10° SSW 22:08:41 17° SSE 22:12:45 10° SE visible
